Regional Weather Roundup
Issued by NWS

Home | Current Version | Previous Version | Text Only | Print | Product List | Glossary Off
Versions: 1 2 3 4 5 6 7 8 9 10 11 12 13 14 15 16 17 18 19 20 21 22 23 24 25 26 27 28 29 30 31 32 33 34 35 36 37 38 39 40 41 42 43 44 45 46 47 48 49 50

000
ASUS43 KLSX 221807
RWRMO

WEATHER SUMMARY FOR MISSOURI
NATIONAL WEATHER SERVICE SPRINGFIELD MO
1200 PM CST MON JAN 22 2018

NOTE: "FAIR" INDICATES FEW OR NO CLOUDS BELOW 12,000 FEET WITH NO
       SIGNIFICANT WEATHER AND/OR OBSTRUCTIONS TO VISIBILITY.
       CURRENT SKY AND/OR WEATHER CONDITIONS ARE NOT AVAILABLE FOR
       CHILLICOTHE AND FARMINGTON.

MOZ001>031-035>038-043-044-053-054-221900-
...NORTHERN AND WESTERN MISSOURI...

CITY           SKY/WX    TMP DP  RH WIND       PRES   REMARKS
KANSAS CTY INT CLOUDY    37  34  89 SW12G22   29.42F WCI  29
6HR MIN TEMP:  36; 6HR MAX TEMP:  39; 6HR PCP: TRACE;

KANSAS C DTWN  CLOUDY    40  34  79 S14       29.45F
6HR MIN TEMP:  38; 6HR MAX TEMP:  40;

LEE`S SUMMIT   CLOUDY    36  34  92 S16       29.46F WCI  26
6HR MIN TEMP:  35; 6HR MAX TEMP:  40; 6HR PCP:  0.01;

ST JOSEPH      LGT RAIN  35  35 100 SW10      29.42F FOG     WCI  27
6HR MIN TEMP:  35; 6HR MAX TEMP:  40; 6HR PCP: TRACE;

CHILLICOTHE      N/A     38  34  85 S17G23    29.46F WCI  28
6HR MIN TEMP:  38; 6HR MAX TEMP:  51;

KIRKSVILLE     PTSUNNY   43  33  68 SW20G29   29.46F
6HR MIN TEMP:  42; 6HR MAX TEMP:  51;


$$
MOZ066>068-077>081-088>096-101>105-221900-
...SOUTHWEST MISSOURI...

CITY           SKY/WX    TMP DP  RH WIND       PRES   REMARKS
SPRINGFIELD    CLOUDY    41  29  62 SW17G35   29.61F
6HR MIN TEMP:  39; 6HR MAX TEMP:  44;

JOPLIN         CLOUDY    42  29  59 SW25G37   29.61F
6HR MIN TEMP:  37; 6HR MAX TEMP:  42;

BRANSON        PTSUNNY   43  27  52 SW20G31   29.69S

$$
MOZ032>034-039>042-045>050-055>058-069>072-221900-
...CENTRAL MISSOURI...

CITY           SKY/WX    TMP DP  RH WIND       PRES   REMARKS
COLUMBIA       CLOUDY    43  31  62 SW23G33   29.54F
6HR MIN TEMP:  42; 6HR MAX TEMP:  52;

JEFFERSON CITY CLOUDY    45  29  53 SW18G28   29.56F
6HR MIN TEMP:  45; 6HR MAX TEMP:  54;

ROLLA          MOSUNNY   48  33  56 SW20G29   29.56F
6HR MIN TEMP:  47; 6HR MAX TEMP:  51;

SEDALIA        CLOUDY    41  32  70 SW21G29   29.52F
6HR MIN TEMP:  41; 6HR MAX TEMP:  50;

WHITEMAN AFB   CLOUDY    40  30  68 SW24G30   29.45F WCI  29
WARRENSBURG    CLOUDY    37  30  75 S15G25    29.50F WCI  28
OSAGE BEACH    CLOUDY    42  29  59 SW18G30   29.59

$$
MOZ051-052-059>065-221900-
...EAST CENTRAL MISSOURI...

CITY           SKY/WX    TMP DP  RH WIND       PRES   REMARKS
ST LOUIS INTL  PTSUNNY   60  44  55 S18G28    29.50F
6HR MIN TEMP:  54; 6HR MAX TEMP:  61;

SPIRIT OF STL  PTSUNNY   60  41  49 S17G31    29.50F
6HR MIN TEMP:  54; 6HR MAX TEMP:  60;

ST CHARLES     MOSUNNY   61  46  57 S20G30    29.49F
6HR MIN TEMP:  53; 6HR MAX TEMP:  61;


$$
MOZ072>076-082>087-097>100-106>115-221900-
...SOUTH CENTRAL AND SOUTHEAST MISSOURI...

CITY           SKY/WX    TMP DP  RH WIND       PRES   REMARKS
CAPE GIRARDEAU FAIR      57  47  69 S22G37    29.65F
6HR MIN TEMP:  53; 6HR MAX TEMP:  58; 6HR PCP:  0.01;

FARMINGTON     SUNNY     58  37  45 S25G31    29.56F
6HR MIN TEMP:  53; 6HR MAX TEMP:  58;

POPLAR BLUFF   FAIR      58  46  64 S16G28    29.65F
6HR MIN TEMP:  51; 6HR MAX TEMP:  58;

WEST PLAINS    SUNNY     50  30  46 SW14G26   29.63F
6HR MIN TEMP:  47; 6HR MAX TEMP:  52;


$$



USA.gov is the U.S. government's official web portal to all federal, state and local government web resources and services.